Weather Roundup
Issued by NWS Chicago, IL

Home | Current Version | Previous Version | Graphics & Text | Print | Product List | Glossary On
Versions: 1 2 3 4 5 6 7 8 9 10 11 12 13 14 15 16 17 18 19 20 21 22 23 24 25 26 27 28 29 30 31 32 33 34 35 36 37 38 39 40 41 42 43 44 45 46 47 48 49 50
000
NZUS59 KLOT 260303
HRRLOT

CHICAGO AREA WEATHER ROUNDUP
NATIONAL WEATHER SERVICE CHICAGO/ROMEOVILLE IL
1000 PM CDT TUE APR 25 2017

NOTE: "FAIR" INDICATES FEW OR NO CLOUDS BELOW 12,000 FEET WITH NO
SIGNIFICANT WEATHER AND/OR OBSTRUCTIONS TO VISIBILITY.

* THESE STATIONS ARE NOT UNDER NWS QUALITY CONTROL. THEY ALSO MAY NOT
  REPORT WEATHER SUCH AS PRECIPITATION OR FOG.

ILZ005-006-012>014-019>023-260400-
NORTHEAST ILLINOIS

CITY           SKY/WX    TMP DP  RH WIND       PRES   REMARKS
OHARE          CLOUDY    69  52  54 S9        29.57R
MIDWAY         CLOUDY    73  53  49 S6        29.58R
AURORA         CLOUDY    70  52  52 SE12      29.56S
LANSING*       MOCLDY    69  56  63 S10       29.60R
JOLIET*        PTCLDY    72  54  53 S6        29.58R
WAUKEGAN       CLOUDY    58  50  75 SE7       29.58R
DUPAGE AIRPORT CLOUDY    70  53  54 S10       29.56R
WHEELING       CLOUDY    69  53  56 SE7       29.58R
KANKAKEE*      CLOUDY    69  52  55 S8        29.59S
MORRIS*        CLOUDY    70  52  53 S8        29.56R
NORTHERLY ISL    N/A     59  51  75 S3          N/A
$$

WIZ051-052-058>065-066-070>072-260400-
SOUTHEAST WISCONSIN

CITY           SKY/WX    TMP DP  RH WIND       PRES   REMARKS
MILWAUKEE      CLOUDY    58  50  75 SE7       29.60R
KENOSHA*       CLOUDY    61  50  67 SE9       29.58S
RACINE*        CLOUDY    61  50  67 S12       29.61R
WEST BEND      MOCLDY    57  50  77 SE5       29.60S
$$

INZ001>003-010>013-019-020-260400-
NORTHWEST INDIANA

CITY           SKY/WX    TMP DP  RH WIND       PRES   REMARKS
GARY*          MOCLDY    73  50  43 SE7       29.59R
MICHIGAN CITY* NOT AVBL
RENSSELAER*    NOT AVBL
VALPARAISO     CLOUDY    71  55  56 S10G17    29.62R
$$

LMZ740>746-260400-
SOUTHERN LAKE MICHIGAN

STATION/POSITION TIME  SKY/WX   TEMP WIND        PRES    VSBY
                                AIR  DIR/SP/G
                 (UTC)          (F)  (DEG/KT/KT) (MB)    (MI)
HARRISON CRIB    0230            67  140/ 21/ 22   N/A
BURNHAM HARBOR   0300            59   CALM  /  7   N/A
CALUMET HARBOR   0230            73  150/  7/ 10 1001.4R
BURNS HARBOR     0240            71  180/  8/ 14 1003.0R
MICHIGAN CITY    0240            71  120/ 13/ 19   N/A
$$

ABBREVIATIONS USED IN REMARKS
   TC - TEMPERATURE IN CELSIUS
  WCI - WIND CHILL INDEX
   HX - HEAT INDEX
  VSB - VISIBILITY
$$



USA.gov is the U.S. government's official web portal to all federal, state and local government web resources and services.